Date String (YYYY-MM-DD hh:mm:ss) UTC,Instrument flags,absolute air pressure of the measurement (hPa),sample flow rate (lpm),inlet stack bypass flow (lpm),air temperature of the measurement (°C),ambient temperature measured by the external sensor (°C),aerosol sample conditioner tube jacket temperature (°C),OPC LED temperature (°C),internal box temperature (°C),relative humidity of the measurement (%),span deviation,mass concentration of particles derived from Lorenz-Mie calculation of OPC scattering (μg/m³),mass concentration of particles derived from Lorenz-Mie calculation of OPC scattering (μg/m³),mass concentration of particles derived from Lorenz-Mie calculation of OPC scattering (μg/m³)
DateTimeUTC,F1_M11,P_M11,Q1_M11,Q2_M11,T1_M11,T2_M11,T3_M11,T4_M11,T5_M11,U1_M11,ZSPAN_M11,X0_M11,X2_M11,X1_M11
2023-12-31 12:00:00,SystemResetWarning,0829.7,5.00,000.00,021.8,021.0,000.0,030.2,023.2,11.7,0000.0,0011.34,0004.43,0003.87
2023-12-31 12:01:00,SystemResetWarning,0829.7,5.00,000.00,021.8,021.0,000.0,030.2,023.2,11.8,0000.0,0011.15,0004.44,0003.88
2023-12-31 12:02:00,SystemResetWarning,0829.7,5.01,000.00,021.8,021.0,000.0,030.2,023.2,11.8,0000.0,0011.00,0004.48,0003.89
2023-12-31 12:03:00,SystemResetWarning,0829.7,5.00,000.00,021.8,021.0,000.0,030.2,023.2,11.8,0000.0,0010.29,0004.48,0003.88
2023-12-31 12:04:00,SystemResetWarning,0829.7,5.00,000.00,021.8,021.0,000.0,030.2,023.2,11.9,0000.0,0010.24,0004.49,0003.87
2023-12-31 12:05:00,SystemResetWarning,0829.7,5.00,000.00,021.8,021.0,000.0,030.2,023.2,11.9,0000.0,0009.99,0004.49,0003.86
2023-12-31 12:06:00,SystemResetWarning,0829.7,5.00,000.00,021.8,021.0,000.0,030.1,023.2,12.0,0000.0,0011.11,0004.53,0003.85
2023-12-31 12:07:00,SystemResetWarning,0829.7,5.00,000.00,021.8,021.0,000.0,030.2,023.2,12.0,0000.0,0011.01,0004.55,0003.84
2023-12-31 12:08:00,SystemResetWarning,0829.7,5.00,000.00,021.8,021.0,000.0,030.2,023.2,12.1,0000.0,0010.07,0004.57,0003.83
2023-12-31 12:09:00,SystemResetWarning,0829.7,5.01,000.00,021.8,021.0,000.0,030.2,023.2,12.2,0000.0,0010.13,0004.55,0003.82
2023-12-31 12:10:00,SystemResetWarning,0829.7,5.00,000.00,021.8,021.0,000.0,030.1,023.2,12.2,0000.0,0010.01,0004.50,0003.81
2023-12-31 12:11:00,SystemResetWarning,0829.7,5.00,000.00,021.8,021.0,000.0,030.1,023.2,12.2,0000.0,0009.99,0004.47,0003.80
2023-12-31 12:12:00,SystemResetWarning,0829.7,5.00,000.00,021.8,021.0,000.0,030.1,023.2,12.2,0000.0,0009.98,0004.45,0003.78
2023-12-31 12:13:00,SystemResetWarning,0829.7,5.00,000.00,021.8,021.0,000.0,030.1,023.2,12.2,0000.0,0010.00,0004.40,0003.75
2023-12-31 12:14:00,SystemResetWarning,0829.7,5.00,000.00,021.8,021.0,000.0,030.1,023.2,12.2,0000.0,0010.48,0004.40,0003.75
2023-12-31 12:15:00,SystemResetWarning,0829.7,5.00,000.00,021.8,021.0,000.0,030.1,023.1,12.2,0000.0,0010.93,0004.38,0003.74
2023-12-31 12:16:00,SystemResetWarning,0829.7,5.00,000.00,021.8,021.0,000.0,030.1,023.1,12.2,0000.0,0011.32,0004.40,0003.74
2023-12-31 12:17:00,SystemResetWarning,0829.7,5.00,000.00,021.8,021.0,000.0,030.1,023.1,12.2,0000.0,0011.27,0004.38,0003.73
2023-12-31 12:18:00,SystemResetWarning,0829.7,5.00,000.00,021.8,021.0,000.0,030.1,023.2,12.3,0000.0,0011.81,0004.37,0003.71
2023-12-31 12:19:00,SystemResetWarning,0829.7,5.00,000.00,021.8,021.0,000.0,030.1,023.1,12.3,0000.0,0012.59,0004.35,0003.69
2023-12-31 12:20:00,SystemResetWarning,0829.7,5.00,000.00,021.8,020.9,000.0,030.1,023.1,12.3,0000.0,0013.00,0004.37,0003.66
2023-12-31 12:21:00,SystemResetWarning,0829.7,5.01,000.00,021.8,021.0,000.0,030.1,023.1,12.4,0000.0,0013.26,0004.38,0003.64
2023-12-31 12:22:00,SystemResetWarning,0829.7,5.01,000.00,021.8,021.0,000.0,030.1,023.1,12.4,0000.0,0013.50,0004.40,0003.63
2023-12-31 12:23:00,SystemResetWarning,0829.7,4.99,000.00,021.7,021.0,000.0,030.1,023.1,12.4,0000.0,0013.70,0004.41,0003.62
2023-12-31 12:24:00,SystemResetWarning,0829.7,4.99,000.00,021.7,020.9,000.0,030.1,023.1,12.4,0000.0,0013.24,0004.40,0003.61
2023-12-31 12:25:00,SystemResetWarning,0829.7,4.99,000.00,021.7,020.9,000.0,030.1,023.1,12.4,0000.0,0012.88,0004.39,0003.58
2023-12-31 12:26:00,SystemResetWarning,0829.8,5.00,000.00,021.7,020.9,000.0,030.1,023.1,12.4,0000.0,0012.94,0004.38,0003.56
2023-12-31 12:27:00,SystemResetWarning,0829.8,5.00,000.00,021.7,020.9,000.0,030.1,023.1,12.4,0000.0,0012.38,0004.36,0003.55
2023-12-31 12:28:00,SystemResetWarning,0829.8,5.00,000.00,021.7,020.9,000.0,030.1,023.1,12.4,0000.0,0011.56,0004.32,0003.53
2023-12-31 12:29:00,SystemResetWarning,0829.8,5.00,000.00,021.7,020.9,000.0,030.1,023.1,12.4,0000.0,0011.31,0004.32,0003.52
2023-12-31 12:30:00,SystemResetWarning,0829.8,5.00,000.00,021.7,020.9,000.0,030.1,023.1,12.4,0000.0,0010.90,0004.31,0003.52
2023-12-31 12:31:00,SystemResetWarning,0829.8,5.01,000.00,021.7,020.9,000.0,030.1,023.1,12.4,0000.0,0010.61,0004.28,0003.52
2023-12-31 12:32:00,SystemResetWarning,0829.8,5.00,000.00,021.7,020.9,000.0,030.1,023.1,12.4,0000.0,0010.28,0004.24,0003.51
2023-12-31 12:33:00,SystemResetWarning,0829.8,5.00,000.00,021.7,020.9,000.0,030.1,023.1,12.4,0000.0,0009.94,0004.19,0003.50
2023-12-31 12:34:00,SystemResetWarning,0829.8,5.00,000.00,021.7,020.9,000.0,030.0,023.1,12.4,0000.0,0009.81,0004.13,0003.49
2023-12-31 12:35:00,SystemResetWarning,0829.8,5.00,000.00,021.7,020.9,000.0,030.0,023.1,12.4,0000.0,0010.17,0004.09,0003.48
2023-12-31 12:36:00,SystemResetWarning,0829.8,5.00,000.00,021.7,020.9,000.0,030.0,023.0,12.4,0000.0,0010.55,0004.05,0003.49
2023-12-31 12:37:00,SystemResetWarning,0829.8,5.00,000.00,021.7,020.9,000.0,030.0,023.0,12.4,0000.0,0010.08,0004.05,0003.49
2023-12-31 12:38:00,SystemResetWarning,0829.8,5.00,000.00,021.7,020.9,000.0,030.0,023.0,12.4,0000.0,0010.29,0003.99,0003.48
2023-12-31 12:39:00,SystemResetWarning,0829.9,5.00,000.00,021.7,020.9,000.0,030.0,023.0,12.4,0000.0,0010.13,0003.98,0003.48
2023-12-31 12:40:00,SystemResetWarning,0829.9,5.00,000.00,021.7,020.9,000.0,030.0,023.0,12.3,0000.0,0009.59,0003.95,0003.48
2023-12-31 12:41:00,SystemResetWarning,0829.9,5.00,000.00,021.7,020.8,000.0,030.0,023.0,12.3,0000.0,0009.24,0003.93,0003.48
2023-12-31 12:42:00,SystemResetWarning,0829.9,5.00,000.00,021.7,020.8,000.0,030.0,023.1,12.3,0000.0,0009.83,0003.92,0003.49
2023-12-31 12:43:00,SystemResetWarning,0829.9,5.00,000.00,021.7,020.8,000.0,030.0,023.0,12.3,0000.0,0009.92,0003.93,0003.49
2023-12-31 12:44:00,SystemResetWarning,0829.9,5.01,000.00,021.6,020.8,000.0,030.0,023.0,12.3,0000.0,0010.06,0003.95,0003.49
2023-12-31 12:45:00,SystemResetWarning,0830.0,5.00,000.00,021.6,020.8,000.0,030.0,023.0,12.3,0000.0,0010.09,0004.00,0003.50
2023-12-31 12:46:00,SystemResetWarning,0830.0,4.99,000.00,021.6,020.7,000.0,030.0,023.0,12.3,0000.0,0010.27,0004.04,0003.51
2023-12-31 12:47:00,SystemResetWarning,0830.0,4.99,000.00,021.6,020.7,000.0,030.0,023.0,12.3,0000.0,0009.97,0004.04,0003.52
2023-12-31 12:48:00,SystemResetWarning,0829.9,5.00,000.00,021.6,020.7,000.0,030.0,023.0,12.3,0000.0,0010.38,0004.06,0003.52
2023-12-31 12:49:00,SystemResetWarning,0829.9,5.01,000.00,021.6,020.7,000.0,030.0,023.0,12.3,0000.0,0010.33,0004.08,0003.53
2023-12-31 12:50:00,SystemResetWarning,0830.0,5.01,000.00,021.6,020.7,000.0,030.0,022.9,12.3,0000.0,0010.50,0004.10,0003.53
2023-12-31 12:51:00,SystemResetWarning,0829.9,5.00,000.00,021.6,020.7,000.0,030.0,022.9,12.3,0000.0,0010.66,0004.12,0003.53
2023-12-31 12:52:00,SystemResetWarning,0829.9,5.00,000.00,021.6,020.6,000.0,030.0,022.9,12.3,0000.0,0010.66,0004.14,0003.54
2023-12-31 12:53:00,SystemResetWarning,0829.9,4.99,000.00,021.6,020.6,000.0,030.0,022.9,12.3,0000.0,0010.17,0004.17,0003.55
2023-12-31 12:54:00,SystemResetWarning,0829.9,5.00,000.00,021.6,020.6,000.0,030.0,022.9,12.2,0000.0,0010.30,0004.19,0003.55
2023-12-31 12:55:00,SystemResetWarning,0830.0,4.99,000.00,021.6,020.6,000.0,030.0,022.9,12.2,0000.0,0010.38,0004.19,0003.55
2023-12-31 12:56:00,SystemResetWarning,0830.0,5.00,000.00,021.6,020.6,000.0,030.0,022.9,12.2,0000.0,0010.36,0004.17,0003.55
2023-12-31 12:57:00,SystemResetWarning,0830.0,5.01,000.00,021.6,020.6,000.0,030.0,022.9,12.1,0000.0,0009.81,0004.14,0003.55
2023-12-31 12:58:00,SystemResetWarning,0830.0,5.01,000.00,021.6,020.6,000.0,029.9,022.9,12.1,0000.0,0009.59,0004.19,0003.55
2023-12-31 12:59:00,SystemResetWarning,0830.1,5.00,000.00,021.6,020.6,000.0,029.9,022.9,12.1,0000.0,0009.92,0004.18,0003.55
